カタログに戻る

STARLINK-34478

運用中通信VLEO
NORAD 64435·PAYLOAD·🇺🇸 United States

打ち上げ Jun 17, 2025 から Vandenberg Space Force Base

Loading…

次のパス (今後24時間)

TLE

最新Source: CelesTrak SupGP

元期: Sep 14, 2026, 21:06 UTC

1 64435C 25129Z   26257.87965278 -.00087965  00000+0 -30564-2 0  2578
2 64435  69.9989 315.8822 0003619 268.3423 147.0771 15.29660186    12

AllMySatでSTARLINK-34478をリアルタイム追跡

Download on the App Store